Location: Pitton
(51.0667°N, 1.7000°W)
Time: 12:17:12
(UTC+00:00)

USA 234 - Pass Details

Date: 17 September 2019
Orbit: 1103 x 1105 km, 123.0° (Epoch: 06 October)

Event Time Altitude Azimuth Distance (km) Brightness Sun altitude
Exits shadow 22:45:02 64° 297° (WNW) 1,211 3.5 -34.4°
Drops below altitude 10° 22:50:28 10° 300° (WNW) 2,968 6.0 -34.8°
Sets 22:52:58 0° 301° (WNW) 3,928 6.8 -34.9°
